Time,TemperatureF,DewpointF,PressureIn,WindDirection,WindDirectionDegrees,WindSpeedMPH,WindSpeedGustMPH,Humidity,HourlyPrecipIn,Conditions,Clouds,dailyrainin,SoftwareType,DateUTC
2013-03-23 00:00:00,32.0,19.0,-100.00,SW,234,1.0,10.0,59,-99.99,,,-99.99,,2013-03-23 04:00:00,
2013-03-23 00:33:00,32.0,19.0,-100.00,SW,234,1.0,10.0,59,-99.99,,,-99.99,,2013-03-23 04:33:00,
2013-03-23 00:43:00,32.0,19.0,-100.00,SW,234,1.0,10.0,59,-99.99,,,-99.99,,2013-03-23 04:43:00,
2013-03-23 00:53:00,32.0,19.0,-100.00,SW,234,1.0,10.0,59,-99.99,,,-99.99,,2013-03-23 04:53:00,
2013-03-23 01:00:00,31.0,19.0,-100.00,WSW,253,4.0,7.0,61,-99.99,,,-99.99,,2013-03-23 05:00:00,
2013-03-23 01:22:00,31.0,19.0,-100.00,WSW,253,4.0,7.0,61,-99.99,,,-99.99,,2013-03-23 05:22:00,
2013-03-23 01:33:00,31.0,19.0,-100.00,WSW,253,4.0,7.0,61,-99.99,,,-99.99,,2013-03-23 05:33:00,
2013-03-23 01:42:00,31.0,19.0,-100.00,WSW,253,4.0,7.0,61,-99.99,,,-99.99,,2013-03-23 05:42:00,
2013-03-23 01:53:00,31.0,19.0,-100.00,WSW,253,4.0,7.0,61,-99.99,,,-99.99,,2013-03-23 05:53:00,
2013-03-23 02:00:00,30.0,19.0,-100.00,SW,232,0.0,8.0,63,-99.99,,,-99.99,,2013-03-23 06:00:00,
2013-03-23 02:22:00,30.0,19.0,-100.00,SW,232,0.0,8.0,63,-99.99,,,-99.99,,2013-03-23 06:22:00,
2013-03-23 02:32:00,30.0,19.0,-100.00,SW,232,0.0,8.0,63,-99.99,,,-99.99,,2013-03-23 06:32:00,
2013-03-23 02:42:00,30.0,19.0,-100.00,SW,232,0.0,8.0,63,-99.99,,,-99.99,,2013-03-23 06:42:00,
2013-03-23 02:52:00,30.0,19.0,-100.00,SW,232,0.0,8.0,63,-99.99,,,-99.99,,2013-03-23 06:52:00,
2013-03-23 03:00:00,30.0,18.0,-100.00,West,269,5.0,8.0,62,-99.99,,,-99.99,,2013-03-23 07:00:00,
2013-03-23 03:33:00,30.0,18.0,-100.00,West,269,5.0,8.0,62,-99.99,,,-99.99,,2013-03-23 07:33:00,
2013-03-23 03:42:00,30.0,18.0,-100.00,West,269,5.0,8.0,62,-99.99,,,-99.99,,2013-03-23 07:42:00,
2013-03-23 03:52:00,30.0,18.0,-100.00,West,269,5.0,8.0,62,-99.99,,,-99.99,,2013-03-23 07:52:00,
2013-03-23 04:00:00,30.0,19.0,-100.00,SW,235,0.0,7.0,62,-99.99,,,-99.99,,2013-03-23 08:00:00,
2013-03-23 04:22:00,30.0,19.0,-100.00,SW,235,0.0,7.0,62,-99.99,,,-99.99,,2013-03-23 08:22:00,
2013-03-23 04:32:00,30.0,19.0,-100.00,SW,235,0.0,7.0,62,-99.99,,,-99.99,,2013-03-23 08:32:00,
2013-03-23 04:42:00,30.0,19.0,-100.00,SW,235,0.0,7.0,62,-99.99,,,-99.99,,2013-03-23 08:42:00,
2013-03-23 04:53:00,30.0,19.0,-100.00,SW,235,0.0,7.0,62,-99.99,,,-99.99,,2013-03-23 08:53:00,
2013-03-23 05:00:00,29.0,18.0,-100.00,WSW,244,0.0,8.0,64,-99.99,,,-99.99,,2013-03-23 09:00:00,
2013-03-23 05:22:00,29.0,18.0,-100.00,WSW,244,0.0,8.0,64,-99.99,,,-99.99,,2013-03-23 09:22:00,
2013-03-23 05:33:00,29.0,18.0,-100.00,WSW,244,0.0,8.0,64,-99.99,,,-99.99,,2013-03-23 09:33:00,
2013-03-23 05:43:00,29.0,18.0,-100.00,WSW,244,0.0,8.0,64,-99.99,,,-99.99,,2013-03-23 09:43:00,
2013-03-23 05:53:00,29.0,18.0,-100.00,WSW,244,0.0,8.0,64,-99.99,,,-99.99,,2013-03-23 09:53:00,
2013-03-23 06:00:00,29.0,19.0,-100.00,WSW,246,0.0,10.0,65,-99.99,,,-99.99,,2013-03-23 10:00:00,
2013-03-23 06:24:00,29.0,19.0,-100.00,WSW,246,0.0,10.0,65,-99.99,,,-99.99,,2013-03-23 10:24:00,
2013-03-23 06:34:00,29.0,19.0,-100.00,WSW,246,0.0,10.0,65,-99.99,,,-99.99,,2013-03-23 10:34:00,
2013-03-23 06:43:00,29.0,19.0,-100.00,WSW,246,0.0,10.0,65,-99.99,,,-99.99,,2013-03-23 10:43:00,
2013-03-23 06:53:00,29.0,19.0,-100.00,WSW,246,0.0,10.0,65,-99.99,,,-99.99,,2013-03-23 10:53:00,
2013-03-23 07:00:00,29.0,18.0,-100.00,West,262,0.0,11.0,65,-99.99,,,-99.99,,2013-03-23 11:00:00,
2013-03-23 07:22:00,29.0,18.0,-100.00,West,262,0.0,11.0,65,-99.99,,,-99.99,,2013-03-23 11:22:00,
2013-03-23 07:32:00,29.0,18.0,-100.00,West,262,0.0,11.0,65,-99.99,,,-99.99,,2013-03-23 11:32:00,
2013-03-23 07:42:00,29.0,18.0,-100.00,West,262,0.0,11.0,65,-99.99,,,-99.99,,2013-03-23 11:42:00,
2013-03-23 07:52:00,29.0,18.0,-100.00,West,262,0.0,11.0,65,-99.99,,,-99.99,,2013-03-23 11:52:00,
2013-03-23 08:00:00,31.0,19.0,-100.00,WSW,248,5.0,10.0,62,-99.99,,,-99.99,,2013-03-23 12:00:00,
2013-03-23 08:22:00,31.0,19.0,-100.00,WSW,248,5.0,10.0,62,-99.99,,,-99.99,,2013-03-23 12:22:00,
2013-03-23 08:33:00,31.0,19.0,-100.00,WSW,248,5.0,10.0,62,-99.99,,,-99.99,,2013-03-23 12:33:00,
2013-03-23 08:43:00,31.0,19.0,-100.00,WSW,248,5.0,10.0,62,-99.99,,,-99.99,,2013-03-23 12:43:00,
2013-03-23 08:53:00,31.0,19.0,-100.00,WSW,248,5.0,10.0,62,-99.99,,,-99.99,,2013-03-23 12:53:00,
2013-03-23 09:00:00,36.0,19.0,-100.00,West,270,2.0,14.0,51,-99.99,,,-99.99,,2013-03-23 13:00:00,
2013-03-23 09:23:00,36.0,19.0,-100.00,West,270,2.0,14.0,51,-99.99,,,-99.99,,2013-03-23 13:23:00,
2013-03-23 09:33:00,36.0,19.0,-100.00,West,270,2.0,14.0,51,-99.99,,,-99.99,,2013-03-23 13:33:00,
2013-03-23 09:43:00,36.0,19.0,-100.00,West,270,2.0,14.0,51,-99.99,,,-99.99,,2013-03-23 13:43:00,
2013-03-23 09:53:00,36.0,19.0,-100.00,West,270,2.0,14.0,51,-99.99,,,-99.99,,2013-03-23 13:53:00,
2013-03-23 10:00:00,39.0,21.0,-100.00,NNW,329,5.0,12.0,48,-99.99,,,-99.99,,2013-03-23 14:00:00,
2013-03-23 10:23:00,39.0,21.0,-100.00,NNW,329,5.0,12.0,48,-99.99,,,-99.99,,2013-03-23 14:23:00,
2013-03-23 10:33:00,39.0,21.0,-100.00,NNW,329,5.0,12.0,48,-99.99,,,-99.99,,2013-03-23 14:33:00,
2013-03-23 10:43:00,39.0,21.0,-100.00,NNW,329,5.0,12.0,48,-99.99,,,-99.99,,2013-03-23 14:43:00,
2013-03-23 10:53:00,39.0,21.0,-100.00,NNW,329,5.0,12.0,48,-99.99,,,-99.99,,2013-03-23 14:53:00,
2013-03-23 11:00:00,41.0,19.0,-100.00,WNW,282,4.0,16.0,41,-99.99,,,-99.99,,2013-03-23 15:00:00,
2013-03-23 11:22:00,41.0,19.0,-100.00,WNW,282,4.0,16.0,41,-99.99,,,-99.99,,2013-03-23 15:22:00,
2013-03-23 11:34:00,41.0,19.0,-100.00,WNW,282,4.0,16.0,41,-99.99,,,-99.99,,2013-03-23 15:34:00,
2013-03-23 11:44:00,41.0,19.0,-100.00,WNW,282,4.0,16.0,41,-99.99,,,-99.99,,2013-03-23 15:44:00,
2013-03-23 11:53:00,41.0,19.0,-100.00,WNW,282,4.0,16.0,41,-99.99,,,-99.99,,2013-03-23 15:53:00,
2013-03-23 12:00:00,43.0,19.0,-100.00,North,349,5.0,19.0,38,-99.99,,,-99.99,,2013-03-23 16:00:00,
2013-03-23 12:23:00,43.0,19.0,-100.00,North,349,5.0,19.0,38,-99.99,,,-99.99,,2013-03-23 16:23:00,
2013-03-23 12:33:00,43.0,19.0,-100.00,North,349,5.0,19.0,38,-99.99,,,-99.99,,2013-03-23 16:33:00,
2013-03-23 12:43:00,43.0,19.0,-100.00,North,349,5.0,19.0,38,-99.99,,,-99.99,,2013-03-23 16:43:00,
2013-03-23 12:54:00,43.0,19.0,-100.00,North,349,5.0,19.0,38,-99.99,,,-99.99,,2013-03-23 16:54:00,
2013-03-23 13:00:00,45.0,19.0,-100.00,NW,319,6.0,18.0,35,-99.99,,,-99.99,,2013-03-23 17:00:00,
2013-03-23 13:23:00,45.0,19.0,-100.00,NW,319,6.0,18.0,35,-99.99,,,-99.99,,2013-03-23 17:23:00,
2013-03-23 13:33:00,45.0,19.0,-100.00,NW,319,6.0,18.0,35,-99.99,,,-99.99,,2013-03-23 17:33:00,
2013-03-23 13:43:00,45.0,19.0,-100.00,NW,319,6.0,18.0,35,-99.99,,,-99.99,,2013-03-23 17:43:00,
2013-03-23 13:53:00,45.0,19.0,-100.00,NW,319,6.0,18.0,35,-99.99,,,-99.99,,2013-03-23 17:53:00,
2013-03-23 14:00:00,47.0,19.0,-100.00,SW,235,6.0,18.0,33,-99.99,,,-99.99,,2013-03-23 18:00:00,
2013-03-23 14:23:00,47.0,19.0,-100.00,SW,235,6.0,18.0,33,-99.99,,,-99.99,,2013-03-23 18:23:00,
2013-03-23 14:32:00,47.0,19.0,-100.00,SW,235,6.0,18.0,33,-99.99,,,-99.99,,2013-03-23 18:32:00,
2013-03-23 14:43:00,47.0,19.0,-100.00,SW,235,6.0,18.0,33,-99.99,,,-99.99,,2013-03-23 18:43:00,
2013-03-23 14:53:00,47.0,19.0,-100.00,SW,235,6.0,18.0,33,-99.99,,,-99.99,,2013-03-23 18:53:00,
2013-03-23 15:00:00,46.0,17.0,-100.00,WNW,286,9.0,15.0,31,-99.99,,,-99.99,,2013-03-23 19:00:00,
2013-03-23 15:23:00,46.0,17.0,-100.00,WNW,286,9.0,15.0,31,-99.99,,,-99.99,,2013-03-23 19:23:00,
2013-03-23 15:33:00,46.0,17.0,-100.00,WNW,286,9.0,15.0,31,-99.99,,,-99.99,,2013-03-23 19:33:00,
2013-03-23 15:43:00,46.0,17.0,-100.00,WNW,286,9.0,15.0,31,-99.99,,,-99.99,,2013-03-23 19:43:00,
2013-03-23 15:53:00,46.0,17.0,-100.00,WNW,286,9.0,15.0,31,-99.99,,,-99.99,,2013-03-23 19:53:00,
2013-03-23 16:00:00,47.0,17.0,-100.00,SW,228,5.0,22.0,30,-99.99,,,-99.99,,2013-03-23 20:00:00,
2013-03-23 16:23:00,47.0,17.0,-100.00,SW,228,5.0,22.0,30,-99.99,,,-99.99,,2013-03-23 20:23:00,
2013-03-23 16:33:00,47.0,17.0,-100.00,SW,228,5.0,22.0,30,-99.99,,,-99.99,,2013-03-23 20:33:00,
2013-03-23 16:43:00,47.0,17.0,-100.00,SW,228,5.0,22.0,30,-99.99,,,-99.99,,2013-03-23 20:43:00,
2013-03-23 16:53:00,47.0,17.0,-100.00,SW,228,5.0,22.0,30,-99.99,,,-99.99,,2013-03-23 20:53:00,
2013-03-23 17:00:00,46.0,17.0,-100.00,NW,312,6.0,16.0,31,-99.99,,,-99.99,,2013-03-23 21:00:00,
2013-03-23 17:23:00,46.0,17.0,-100.00,NW,312,6.0,16.0,31,-99.99,,,-99.99,,2013-03-23 21:23:00,
2013-03-23 17:33:00,46.0,17.0,-100.00,NW,312,6.0,16.0,31,-99.99,,,-99.99,,2013-03-23 21:33:00,
2013-03-23 17:43:00,46.0,17.0,-100.00,NW,312,6.0,16.0,31,-99.99,,,-99.99,,2013-03-23 21:43:00,
2013-03-23 17:54:00,46.0,17.0,-100.00,NW,312,6.0,16.0,31,-99.99,,,-99.99,,2013-03-23 21:54:00,
2013-03-23 18:00:00,44.0,17.0,-100.00,SSW,202,1.0,17.0,33,-99.99,,,-99.99,,2013-03-23 22:00:00,
2013-03-23 18:23:00,44.0,17.0,-100.00,SSW,202,1.0,17.0,33,-99.99,,,-99.99,,2013-03-23 22:23:00,
2013-03-23 18:33:00,44.0,17.0,-100.00,SSW,202,1.0,17.0,33,-99.99,,,-99.99,,2013-03-23 22:33:00,
2013-03-23 18:43:00,44.0,17.0,-100.00,SSW,202,1.0,17.0,33,-99.99,,,-99.99,,2013-03-23 22:43:00,
2013-03-23 18:53:00,44.0,17.0,-100.00,SSW,202,1.0,17.0,33,-99.99,,,-99.99,,2013-03-23 22:53:00,
2013-03-23 19:00:00,43.0,16.0,-100.00,SW,236,4.0,18.0,34,-99.99,,,-99.99,,2013-03-23 23:00:00,
2013-03-23 19:23:00,43.0,16.0,-100.00,SW,236,4.0,18.0,34,-99.99,,,-99.99,,2013-03-23 23:23:00,
2013-03-23 19:33:00,43.0,16.0,-100.00,SW,236,4.0,18.0,34,-99.99,,,-99.99,,2013-03-23 23:33:00,
2013-03-23 19:43:00,43.0,16.0,-100.00,SW,236,4.0,18.0,34,-99.99,,,-99.99,,2013-03-23 23:43:00,
2013-03-23 19:53:00,43.0,16.0,-100.00,SW,236,4.0,18.0,34,-99.99,,,-99.99,,2013-03-23 23:53:00,
2013-03-23 20:00:00,41.0,16.0,-100.00,North,2,1.0,11.0,36,-99.99,,,-99.99,,2013-03-24 00:00:00,
2013-03-23 20:23:00,41.0,16.0,-100.00,North,2,1.0,11.0,36,-99.99,,,-99.99,,2013-03-24 00:23:00,
2013-03-23 20:33:00,41.0,16.0,-100.00,North,2,1.0,11.0,36,-99.99,,,-99.99,,2013-03-24 00:33:00,
2013-03-23 20:42:00,41.0,16.0,-100.00,North,2,1.0,11.0,36,-99.99,,,-99.99,,2013-03-24 00:42:00,
2013-03-23 20:53:00,41.0,16.0,-100.00,North,2,1.0,11.0,36,-99.99,,,-99.99,,2013-03-24 00:53:00,
2013-03-23 21:00:00,39.0,15.0,-100.00,West,264,5.0,6.0,37,-99.99,,,-99.99,,2013-03-24 01:00:00,
2013-03-23 21:22:00,39.0,15.0,-100.00,West,264,5.0,6.0,37,-99.99,,,-99.99,,2013-03-24 01:22:00,
2013-03-23 21:33:00,39.0,15.0,-100.00,West,264,5.0,6.0,37,-99.99,,,-99.99,,2013-03-24 01:33:00,
2013-03-23 21:43:00,39.0,15.0,-100.00,West,264,5.0,6.0,37,-99.99,,,-99.99,,2013-03-24 01:43:00,
2013-03-23 21:53:00,39.0,15.0,-100.00,West,264,5.0,6.0,37,-99.99,,,-99.99,,2013-03-24 01:53:00,
2013-03-23 22:00:00,37.0,16.0,-100.00,NW,308,0.0,7.0,41,-99.99,,,-99.99,,2013-03-24 02:00:00,
2013-03-23 22:22:00,37.0,16.0,-100.00,NW,308,0.0,7.0,41,-99.99,,,-99.99,,2013-03-24 02:22:00,
2013-03-23 22:32:00,37.0,16.0,-100.00,NW,308,0.0,7.0,41,-99.99,,,-99.99,,2013-03-24 02:32:00,
2013-03-23 22:43:00,37.0,16.0,-100.00,NW,308,0.0,7.0,41,-99.99,,,-99.99,,2013-03-24 02:43:00,
2013-03-23 22:52:00,37.0,16.0,-100.00,NW,308,0.0,7.0,41,-99.99,,,-99.99,,2013-03-24 02:52:00,
2013-03-23 23:00:00,36.0,16.0,-100.00,WSW,249,0.0,5.0,44,-99.99,,,-99.99,,2013-03-24 03:00:00,
2013-03-23 23:33:00,36.0,16.0,-100.00,WSW,249,0.0,5.0,44,-99.99,,,-99.99,,2013-03-24 03:33:00,
2013-03-23 23:43:00,36.0,16.0,-100.00,WSW,249,0.0,5.0,44,-99.99,,,-99.99,,2013-03-24 03:43:00,
2013-03-23 23:53:00,36.0,16.0,-100.00,WSW,249,0.0,5.0,44,-99.99,,,-99.99,,2013-03-24 03:53:00,